User: anonymous
Location: Tyler Bend Campground
(35.9875°N, 92.7606°W)
Time: 06:49:55
(UTC-05:00)
Language:

CZ-2C R/B - Orbit

View from above orbital plane
View from above orbital plane
View from above satellite
View from above satellite

Ground track
Ground track

The orbit data is extracted from the following two-line orbital elements,

1 36089U 09061B   14272.20930141  .00000332  00000-0  95070-4 0  4468
2 36089 098.0982 301.0581 0082086 218.4110 183.4263 14.49225265258005
Epoch (UTC): 29 September 2014 05:01:23
Eccentricity: 0.0082086
inclination: 98.0982°
perigee height: 670 km
apogee height: 786 km
right ascension of ascending node: 301.0581°
argument of perigee: 218.4110°
revolutions per day: 14.49225265
mean anomaly at epoch: 183.4263°
orbit number at epoch: 25800

The dashed part of the orbit path shows where the satellite is in the earth's shadow,  

DLR